Location: 10033 Water Well
(34.0865°N, 106.8959°W)
Time: 20:17:59
(UTC+00:00)

Meteor 1-15 Rocket - Pass Details

Date: 13 January 2026
Orbit: 839 x 906 km, 81.2° (Epoch: 10 February)

Event Time Altitude Azimuth Distance (km) Brightness Sun altitude
Rises 00:54:14 0° 357° (N) 3,536 7.3 -7.6°
Reaches altitude 10° 00:56:47 10° 2° (N) 2,589 6.5 -8.1°
Maximum altitude 01:02:34 55° 79° (E) 1,071 4.4 -9.2°
Drops below altitude 10° 01:08:16 10° 157° (SSE) 2,548 6.7 -10.3°
Sets 01:10:44 0° 161° (SSE) 3,475 7.4 -10.8°
